Eugene, OR

12:55 AM PDT on April 28, 2017 (GMT -0700)
Mahlon Sweet

Weather History for KEUG - February, 2014

Change the Weather History Date:

Tuesday, February 25, 2014

  Actual Average Record
Temperature  
Mean Temperature 48 °F 44 °F  
Max Temperature 55 °F 53 °F 68 °F (1968)
Min Temperature 40 °F 35 °F 23 °F (1962)
Degree Days  
Heating Degree Days 17 21  
Month to date heating degree days 585 555  
Since 1 July heating degree days 3510 3265  
Cooling Degree Days 0 0  
Month to date cooling degree days 0 0  
Year to date cooling degree days 0 0  
Moisture  
Dew Point 41 °F    
Average Humidity 83    
Maximum Humidity 100    
Minimum Humidity 66    
Precipitation  
Precipitation 0.00 in 0.19 in 1.09 in (1940)
Month to date precipitation 7.71 4.87  
Year to date precipitation 10.29 11.74  
Sea Level Pressure  
Sea Level Pressure 29.97 in    
Wind  
Wind Speed 11 mph (North)    
Max Wind Speed 15 mph    
Max Gust Speed 22 mph    
Visibility 8 miles    
Events      
T = Trace of Precipitation, MM = Missing Value Source: NWS Daily Summary

Daily Weather History Graph

Daily Weather History Graph

Search for Another Location

Airport or City:

Trip Planner

Search our weather history database for the weather conditions in past years. The results will help you decide how hot, cold, wet, or windy it might be!

Date:

Astronomy

Feb. 25, 2014 Rise Set
Actual Time 6:56 AM PST 5:56 PM PST
Civil Twilight 6:27 AM PST 6:25 PM PST
Nautical Twilight 5:53 AM PST 6:58 PM PST
Astronomical Twilight 5:20 AM PST 7:32 PM PST
Moon 4:02 AM PST (2/25) 2:02 PM PST (2/25)
Length of Visible Light 11h 58m
Length of Day
10h 59m
Waning Crescent, 17% of the Moon is Illuminated
Feb 25
Waning Crescent
Mar 1
New
Mar 8
First Quarter
Mar 16
Full
Mar 23
Last Quarter

Hourly Weather History & Observations

Time (PST) Temp. Windchill Dew Point Humidity Pressure Visibility Wind Dir Wind Speed Gust Speed Precip Events Conditions
12:54 AM 46.9 °F - 46.0 °F 97% 30.00 in 0.5 mi NNE 10.4 mph - N/A   Overcast
1:54 AM 46.9 °F - 46.0 °F 97% 30.00 in 0.5 mi North 10.4 mph - N/A   Overcast
2:54 AM 46.0 °F 40.2 °F 44.1 °F 93% 29.99 in 0.5 mi North 12.7 mph - N/A   Overcast
3:54 AM 45.0 °F 39.7 °F 44.1 °F 97% 29.99 in 0.5 mi NNE 10.4 mph - N/A   Overcast
4:37 AM 44.1 °F 38.1 °F 42.1 °F 93% 29.98 in 0.5 mi North 11.5 mph - N/A   Overcast
4:54 AM 44.1 °F 37.7 °F 42.1 °F 93% 29.99 in 0.5 mi NNE 12.7 mph - N/A   Overcast
5:45 AM 44.1 °F 37.4 °F 41.0 °F 89% 29.99 in 7.0 mi North 13.8 mph - N/A   Overcast
5:54 AM 44.1 °F 37.4 °F 41.0 °F 89% 29.99 in 8.0 mi North 13.8 mph - N/A   Overcast
6:54 AM 43.0 °F 36.4 °F 39.9 °F 89% 29.99 in 10.0 mi North 12.7 mph - N/A   Overcast
7:54 AM 43.0 °F 36.8 °F 39.0 °F 86% 30.01 in 10.0 mi NNE 11.5 mph - N/A   Overcast
8:54 AM 43.0 °F 37.7 °F 39.9 °F 89% 30.01 in 10.0 mi North 9.2 mph - N/A   Overcast
9:44 AM 45.0 °F 39.7 °F 39.9 °F 82% 30.01 in 10.0 mi North 10.4 mph - N/A   Overcast
9:54 AM 45.0 °F 40.1 °F 39.9 °F 82% 30.02 in 10.0 mi NNE 9.2 mph - N/A   Overcast
10:54 AM 46.0 °F 40.2 °F 39.0 °F 76% 30.02 in 10.0 mi North 12.7 mph - N/A   Overcast
11:54 AM 48.9 °F - 41.0 °F 74% 30.00 in 10.0 mi NNE 10.4 mph - N/A   Mostly Cloudy
12:10 PM 50.0 °F - 41.0 °F 71% 29.99 in 10.0 mi North 10.4 mph - N/A   Mostly Cloudy
12:54 PM 52.0 °F - 42.1 °F 69% 29.97 in 10.0 mi North 12.7 mph - N/A   Mostly Cloudy
1:54 PM 54.0 °F - 43.0 °F 66% 29.95 in 10.0 mi NNE 11.5 mph - N/A   Mostly Cloudy
2:54 PM 54.0 °F - 43.0 °F 66% 29.93 in 10.0 mi North 11.5 mph - N/A   Mostly Cloudy
3:54 PM 54.0 °F - 42.1 °F 64% 29.92 in 10.0 mi North 12.7 mph - N/A   Mostly Cloudy
4:54 PM 52.0 °F - 42.1 °F 69% 29.92 in 10.0 mi North 10.4 mph - N/A   Mostly Cloudy
5:54 PM 50.0 °F - 41.0 °F 71% 29.91 in 10.0 mi North 9.2 mph - N/A   Mostly Cloudy
6:54 PM 46.9 °F - 39.0 °F 74% 29.92 in 10.0 mi North 8.1 mph - N/A   Mostly Cloudy
7:54 PM 45.0 °F 40.1 °F 37.9 °F 76% 29.92 in 10.0 mi North 9.2 mph - N/A   Scattered Clouds
8:54 PM 44.1 °F 38.6 °F 37.0 °F 76% 29.93 in 10.0 mi North 10.4 mph - N/A   Clear
9:54 PM 42.1 °F 36.1 °F 35.1 °F 76% 29.93 in 10.0 mi North 10.4 mph - N/A   Clear
10:54 PM 41.0 °F 34.3 °F 34.0 °F 76% 29.93 in 10.0 mi North 11.5 mph - N/A   Scattered Clouds
11:54 PM 39.9 °F 32.9 °F 33.1 °F 77% 29.93 in 10.0 mi North 11.5 mph - N/A   Clear